GFSNE_prec_radar_363.txt.gz
Reflectivity
-0 -0 9 16 14 14 24 -1 7 -2 -20 -20 -20 -20 -20 -20 -20 -20 -20 -20 -20 -20 -20 -20 -20 -20 -20 -20 -20 -3 19 28 38 33 15 7 -16 13
6 19 -19 20 19 20 24 9 -20 -4 -20 4 13 -18 -20 -20 -20 -20 -20 -20 -20 -20 -20 -20 -20 -20 -20 -20 -20 -13 21 21 30 19 30 22 16 3
12 6 15 11 19 14 17 7 -19 -20 -12 4 5 20 -20 -20 -20 -20 -20 -20 -20 -20 -20 -20 -20 -20 -20 -20 -20 5 -13 24 10 -20 -10 28 30 -11
13 12 -3 18 -4 12 -19 7 -19 -11 6 -6 -14 13 -20 -20 -18 -5 -20 -20 -20 -20 -20 -20 -20 -20 -20 -20 -20 9 -19 3 -5 -20 -10 31 30 8
13 18 6 -3 5 -7 17 15 8 1 14 5 -15 10 -20 -20 4 -20 -20 -20 -20 -20 -20 -20 -20 -20 -20 -20 -20 -20 -7 10 26 -20 -9 25 28 -16
0 20 14 4 10 -15 -10 14 3 14 10 21 -5 23 -19 -20 -14 3 -13 -20 -20 -20 -20 -20 -20 -20 -20 -20 -20 -20 11 -8 22 22 17 7 34 4
10 16 21 -1 -10 20 -3 14 11 7 15 7 -20 -9 4 -20 -15 -20 -20 -20 -20 -20 -20 -20 -20 -20 -20 -20 -20 -20 -20 14 17 12 18 -17 28 -13
6 17 19 13 -15 -20 -20 -10 19 19 8 -17 -20 2 -20 -20 -19 16 -20 10 -13 -20 -20 -20 -20 -20 -20 -20 -20 -20 -20 14 15 26 -16 19 -3 22
9 15 11 12 -20 -9 -20 -20 -15 -16 -18 22 17 10 -20 -20 -20 11 4 12 -20 -11 -20 11 -20 -2 -0 -17 -17 -20 -20 16 17 7 -3 -8 27 22
3 21 13 13 -11 -8 -20 -20 -16 -8 -11 18 -20 -2 -13 -20 -20 -20 -20 -6 -20 18 20 13 -20 -20 -20 -20 2 4 -6 -15 18 14 10 -1 18 3
20 8 11 11 7 -19 -18 -5 -1 -1 -20 23 2 18 10 -20 11 -0 -20 -20 7 13 19 3 3 -20 -20 -20 -20 -20 -20 -20 -20 9 22 -20 11 9
6 15 -19 6 16 -20 -19 8 8 2 20 17 -20 -20 -20 -11 -15 14 13 -20 -20 10 -12 -20 -19 -20 -2 -20 -20 -20 -20 -7 9 20 29 15 12 2
10 10 9 -20 -20 -20 -9 14 19 6 5 -19 -20 -20 -20 -20 -20 -20 13 -20 -3 -20 18 19 -4 -20 -20 -15 -20 -20 -3 -11 -12 8 21 9 7 27
7 -20 -13 3 -3 -20 -20 -20 -16 -6 13 -15 -10 -20 2 1 15 0 -1 1 -17 20 10 16 8 -17 -20 -20 -20 -20 -20 -20 -20 -18 22 27 27 12
11 6 -14 -20 -19 17 11 24 18 17 13 8 13 8 -10 -14 -20 -20 -20 -20 -19 -20 0 5 -12 3 -17 -14 -20 -20 -18 -14 13 -6 21 26 6 -18
21 16 2 -17 17 33 28 -8 17 16 8 -13 20 -18 -10 -20 -1 -20 -18 0 -4 -1 -18 -17 1 -13 11 7 -19 -20 -20 -19 15 13 4 24 -5 -20
28 23 22 21 14 7 9 17 2 -12 15 18 16 -20 -17 -20 -20 -20 -18 -1 1 9 8 -5 -20 -15 15 -8 3 -13 -14 -20 -18 2 16 20 -6 14
24 -5 2 12 14 14 3 12 17 -11 12 -3 -1 -5 15 -15 -20 2 3 9 -4 0 -2 15 -16 -16 -10 1 9 4 -20 7 1 -4 -2 -10 -11 16
2 -14 -20 -19 -0 -20 -19 2 -19 11 -12 10 15 -1 -13 -9 -7 -20 -20 -18 -20 -20 1 18 -19 -20 -8 8 -6 5 9 25 8 -3 26 6 3 20
-20 -19 -2 -18 -20 -10 -1 12 10 0 9 15 15 -11 -4 -20 -20 -15 -20 -20 9 17 -15 -1 14 -6 -0 -20 -20 1 13 -20 0 -20 10 27 8 29
-20 -20 -20 -20 -20 6 9 12 5 -9 10 -19 -20 -20 -10 -20 -20 -20 -20 6 -17 -20 -18 -1 -19 19 12 -6 -20 8 -8 15 7 -20 1 23 18 6
1 -5 -20 -7 -16 3 1 -16 5 3 -17 -17 -20 -1 -8 -20 -19 -5 -20 -19 -20 -10 -18 -20 -20 -7 -9 -20 -20 21 -10 -18 -8 16 21 27 10 -20
-20 -20 8 10 5 6 10 -12 -4 -20 -20 -18 -20 -20 12 14 -16 -20 -20 -20 -20 -6 -7 15 -20 -1 6 -16 -6 -20 -4 -20 21 24 10 11 15 18

GFSNE_prec_radar_369.txt.gz
Reflectivity
15 -1 4 -20 23 -19 -16 -3 18 27 7 20 6 -20 -20 -20 -20 -20 -20 -20 -20 -20 -20 -20 -20 -20 -20 -20 -20 -20 6 14 20 21 -1 14 -9 10
-19 -3 18 -5 -20 -17 -20 13 33 32 13 29 7 -13 -20 -20 -20 -20 -20 -20 -20 -20 -20 -20 -20 -20 -20 -20 -20 -20 -13 -14 17 14 39 14 24 6
-0 -20 -20 4 5 -20 -7 5 15 27 35 19 31 22 -15 -20 -20 -20 -20 -20 -20 -20 -20 -20 -20 -20 -20 -20 -20 -20 -15 -19 17 21 8 2 -20 16
-20 -20 -16 4 -3 -20 -10 -12 21 27 35 32 22 25 -8 -20 -20 -20 -20 -20 -20 -20 -20 -20 -20 -20 -20 -20 -20 -20 -20 -20 -13 17 33 30 32 33
-20 -20 -20 -14 7 -20 3 9 37 34 38 23 6 17 -16 -20 -20 -20 -20 -20 -20 -20 -20 -20 -20 -20 -20 -20 -20 -20 -20 -20 -20 -8 23 8 28 34
-20 -20 -20 -20 -1 -10 10 12 29 28 34 15 22 -11 -20 -20 -20 -20 -20 -20 -20 -20 -19 -20 -20 -20 -20 -20 -20 -20 -20 -20 -17 12 18 -1 23 22
-20 -17 -15 -20 -5 9 24 13 34 34 33 20 5 -20 -20 -20 -20 -20 -20 -20 -20 -0 -14 -20 -20 -20 -20 -20 -20 -20 -20 -20 -1 20 14 27 23 -4
-10 -20 -0 -7 6 9 27 31 38 33 32 -18 -20 -20 -20 -20 -20 -20 -20 -20 -20 -19 -20 -20 -20 -20 -20 -20 -20 -20 -20 -20 -20 -20 2 25 17 8
-11 -4 -4 -8 12 2 20 25 32 39 28 -19 -20 -20 -20 -20 -20 -20 -20 -20 -20 -20 -11 7 -20 -20 -20 -20 -20 -20 -20 -20 -20 7 16 21 23 28
3 -19 -13 5 15 -20 -4 10 5 -10 17 -17 -20 -20 -20 16 -20 -20 -20 -16 9 -20 -20 -20 -20 -20 -20 -20 -2 -20 -20 -20 -20 -15 9 20 33 8
-7 -17 -20 13 7 -20 -20 -8 20 15 18 -19 -20 -20 -9 -20 -20 -20 -20 20 -20 -20 -20 -19 -20 -20 5 9 3 8 -19 -20 7 -18 -20 13 25 -0
-17 -17 -20 -20 12 -20 -20 5 6 6 -20 -9 -20 -17 -16 -20 -20 -20 -17 -20 -20 -17 23 9 6 -5 -20 -20 -20 -20 -20 -20 -4 5 16 7 26 7
-3 -17 -20 -20 -18 -15 -20 -20 -20 -20 -20 -20 -20 -12 -20 -20 -20 -7 20 3 -20 -20 -17 21 11 -17 2 -20 -20 -20 -20 -20 -20 -3 12 7 9 13
-11 -20 -11 -16 -20 -20 -20 -20 -20 -20 -11 -20 -20 -20 -20 -20 -20 -20 -16 11 -20 -20 -8 17 16 11 -9 -20 -20 -20 -20 -20 -20 -20 -20 7 9 24
-9 -19 -16 -20 1 -20 -20 6 -19 -20 -20 -20 -17 24 16 -19 1 -20 -20 -20 -20 -20 -20 -20 -20 -9 11 5 -20 -20 -19 -20 -20 -19 -19 -18 11 3
-12 -10 -18 3 -10 -2 -20 -19 -20 -18 -17 5 32 6 -20 -20 -7 -20 -20 -20 -17 -11 -20 -17 -20 -20 -20 -8 -20 -20 -20 -20 -20 -20 4 -12 -10 -19
6 23 16 3 -16 6 5 -18 -20 -20 3 21 -10 -20 -20 -20 10 -5 8 -20 1 -14 7 -9 -20 -20 -20 -12 -20 -3 -9 -20 -18 -11 -13 -20 -17 -11
0 28 18 -18 3 8 2 -12 -20 -19 -4 -20 -20 -20 -20 -20 -13 -18 -20 -20 -20 -17 -10 -20 -20 -5 -13 -19 1 0 10 -11 -20 7 9 -20 -20 -20
-20 -20 -18 -5 -9 -19 -19 -19 -9 -10 -18 -20 -20 -20 -20 -20 -18 -4 -8 -14 -11 -19 -15 4 -20 -2 -20 -20 -20 13 -19 2 -20 -17 -19 -20 -3 2
-20 -20 -20 -20 -20 -20 -20 -20 -20 -20 -20 -20 -20 -17 -17 -20 -20 -20 1 -20 -20 -19 -10 -7 -6 -1 -3 -8 -12 -10 16 -13 9 -8 12 17 14 19
-20 -20 -20 -20 -20 -20 -20 -20 -14 -20 -17 -20 -3 -13 15 -19 -20 -20 -20 -20 -13 -20 -15 -18 7 27 11 -10 -2 -3 3 21 14 -3 7 17 6 2
-6 -20 -20 -20 -20 -20 -20 -20 -20 -20 -20 -20 -20 -14 14 -20 -20 -20 -20 -20 -20 -20 -20 -20 -19 18 24 2 -10 13 1 20 16 13 17 18 -12 -20
-20 -20 -20 -7 -20 -20 -20 -20 -20 -20 -14 -20 -20 -20 -11 -20 -20 -20 -20 8 -20 -20 -20 -20 -15 -11 22 25 14 10 -17 -15 1 -20 -3 12 12 21

GFSNE_prec_radar_375.txt.gz
Reflectivity
-20 -20 -20 -20 1 -10 10 10 9 17 12 10 -20 -20 -20 -20 -20 -20 -20 -20 -20 -20 -20 -20 -20 -20 -20 -20 -20 -20 -20 -20 -20 -20 6 24 25 13
-20 -20 -20 -20 2 -8 4 14 27 4 5 -5 -20 -20 -20 -20 -20 -20 -20 -20 -20 -20 -20 -20 -20 -20 -20 -20 -20 -20 -20 -20 -20 -20 -20 -16 18 17
-20 -20 -20 -17 -2 -13 -20 10 6 21 5 -20 -13 -12 -20 -20 -20 -20 -20 -20 -20 -20 -20 -20 -20 -20 -20 -20 -20 -20 -20 -20 -20 -20 -20 -20 9 22
-20 -17 -20 -20 -20 -20 -16 2 -7 10 3 -17 -20 -20 -20 -20 -20 -20 -20 -20 -20 -20 -20 -20 -20 -20 -20 -20 -20 -20 -20 -20 -20 -20 -20 -20 -20 17
-20 -20 -20 -9 -15 -20 -18 -17 10 8 9 10 -20 -19 -16 -20 -14 -9 -4 -20 -20 -20 -20 -20 -20 -20 -20 -20 -20 -20 -20 -20 -20 -20 -20 -20 -18 15
-20 -20 -20 -12 10 -20 0 1 -0 10 8 -19 8 -7 0 -19 18 25 22 -20 -20 -20 -20 -20 -20 -20 -20 -20 -20 -20 -20 -20 -20 -20 -20 4 -10 17
-20 -20 -20 1 7 8 -4 -12 6 -2 13 9 -20 -2 -3 11 16 23 28 -20 -20 -20 -20 -20 -20 -20 -20 -20 -20 -20 -20 -20 -20 -20 -20 0 8 10
-20 -20 -17 -11 7 12 14 -7 -1 7 25 9 -20 -20 -20 17 14 27 33 25 8 -20 -20 -20 -20 -20 -20 -20 -20 -20 -20 -20 -20 -20 -20 -20 -4 -20
-18 11 -4 13 -12 -8 -8 -2 -20 -17 14 -4 -10 -19 5 7 26 38 17 -20 -20 -20 -20 -20 -20 -20 -20 -20 -20 -20 -20 -20 -20 -20 -20 -20 -13 -18
-7 9 6 -6 27 18 -6 5 -2 -1 -4 17 27 19 17 18 40 25 -9 -16 -20 -20 -20 -20 -20 -20 -20 -20 -20 -20 -20 -20 -20 -20 -20 -20 5 -1
12 27 15 -15 -1 23 19 22 4 23 30 32 34 37 40 35 31 27 4 -20 -20 -20 -20 -20 -20 -20 -8 -20 -20 9 1 -20 -20 -20 -13 7 -6 -2
22 25 11 -5 10 20 -6 27 31 40 42 38 33 40 28 30 32 14 -20 -20 -20 -19 -13 -20 -20 -20 -16 -20 -20 -20 -20 9 -20 4 -1 6 10 -16
1 -5 -12 -17 -20 2 3 33 34 42 34 31 33 32 14 -8 -20 -20 -20 -20 -20 -20 -6 -17 -20 10 -14 -20 -20 -17 -20 -20 -19 -10 8 9 10 10
14 -15 -1 6 -20 -20 -7 -1 18 35 27 25 16 19 5 -20 -20 -20 -3 13 5 -1 8 -17 -0 -16 10 10 -20 -8 -20 -20 -20 -20 -20 -20 5 10
17 7 5 8 -18 -17 -12 -20 10 -8 -20 -20 -19 -2 9 -15 -2 14 14 11 -20 -11 11 15 5 -20 -5 24 17 -14 -5 0 -20 -20 -20 -20 -20 -20
24 17 -2 -16 4 -5 -20 -20 -3 -16 -20 -20 -20 -18 -3 17 4 -14 6 -20 -20 -19 -20 -17 -20 -20 -20 -2 -18 -20 -13 -20 -20 -13 -20 -20 -20 -20
26 19 4 -2 -5 -20 -20 -20 -20 -20 -20 -20 -16 7 21 4 -11 -9 -5 -20 -20 -16 -20 -12 -13 -20 -20 -20 -20 -20 -20 -17 -20 -20 -20 -20 -20 -20
-5 25 25 9 11 -19 -19 -4 -20 -20 -20 -9 16 0 -14 -20 -20 -2 -17 -11 -20 -20 -20 -19 -9 -20 -20 -20 -2 -20 -20 -20 -6 11 -20 -20 -20 -20
-20 -10 -10 26 29 10 5 -7 8 13 1 -20 -9 -19 -20 -20 -14 1 -14 -19 -12 6 10 -3 6 -4 -18 -11 -20 14 -20 -20 -12 11 -20 -20 -20 -20
5 -13 0 5 -1 -1 -3 -8 -5 3 0 -20 -20 -20 -20 -20 -16 -6 -4 -20 -20 10 -20 3 -11 -18 7 -0 3 -17 11 -15 -20 -20 -20 -20 -12 11
-0 10 12 15 -16 -20 -20 -20 -20 -4 9 -5 -16 -20 -20 -20 -20 -20 -17 -1 7 -20 -20 -20 -20 -20 2 -1 -20 -20 -6 19 -1 -6 -18 -19 -20 -20
4 -16 -12 10 13 3 -18 -20 -20 -20 -20 -8 -19 -16 -1 -5 -16 0 -1 -2 -20 -20 -20 -20 -20 7 6 -13 -20 5 8 14 6 10 12 7 -13 -19
-2 10 9 5 -16 -14 9 6 -10 -20 -14 -12 -20 -20 -20 -17 -14 -9 17 13 4 -9 -20 -17 1 4 -6 -20 -6 -16 7 0 -20 -20 -19 22 4 9

GFSNE_prec_radar_381.txt.gz
Reflectivity
-20 1 6 9 8 -16 4 6 11 14 8 3 10 -3 2 14 13 13 21 -20 -20 -20 -20 -20 -20 -20 -20 -20 -20 -20 -20 -20 -20 -20 -20 -20 -20 -20
0 1 1 6 8 11 10 8 -8 15 14 6 -1 9 -16 -20 -15 -20 7 -11 -20 -20 -20 -20 -20 -20 -20 -20 -20 -20 -20 -20 -20 -20 -20 -20 -20 -20
5 4 7 8 8 -2 3 10 14 11 -1 -5 7 9 -9 1 -14 19 24 16 3 -20 -20 -20 -20 -20 -20 -20 -20 -20 -20 -20 -20 -20 -20 -20 -20 -20
-20 -8 5 5 7 13 10 6 -10 5 8 -1 10 -14 17 -19 -20 11 17 -13 -20 -20 -20 -20 -20 -20 -20 -20 -20 -20 -20 -20 -20 -20 -20 -20 -20 -20
-20 -6 -8 -0 1 -6 11 18 12 6 6 14 9 6 -2 -2 -1 -19 1 8 -20 -20 -20 -20 -20 -20 -20 -20 -20 -20 -20 -20 -20 -20 -20 -20 -20 -20
5 10 6 1 -20 1 -3 6 13 18 10 -13 4 8 11 3 6 3 3 4 -1 -20 -20 -20 -20 -20 -20 -20 -20 -20 -20 -20 -20 -20 -20 -20 -20 -20
-0 -0 6 5 6 8 9 9 10 15 14 11 2 12 4 13 9 2 6 -5 2 5 5 -20 -20 -16 -20 -20 -20 -20 -20 -20 -20 -20 -20 -20 -20 -20
5 -2 -20 6 -0 -4 2 3 27 12 16 13 10 14 8 7 13 8 20 8 16 3 11 -17 -11 -20 -20 -20 -20 -20 -20 -20 -20 -20 -20 -20 -20 -20
8 13 0 -5 -12 9 9 -4 -14 3 6 16 12 10 8 12 4 -4 11 12 16 16 11 -1 18 -20 -20 -20 -20 -20 -20 -20 -20 -20 -20 -20 -20 -20
20 7 8 3 6 6 -6 2 16 8 3 5 11 5 1 -9 -4 13 4 6 18 3 19 8 24 -14 -18 -20 -20 -20 -20 -20 -20 -20 -20 -20 -20 -20
-16 10 13 16 15 8 9 7 4 -1 4 -8 4 1 -20 -20 -14 8 10 6 -3 9 -12 31 33 20 -19 -20 -20 -20 -20 -20 -20 -20 -20 -20 -20 -20
-3 -20 8 -3 -14 -10 21 25 26 15 14 10 8 6 5 -4 8 2 2 -2 13 12 3 29 10 11 10 -20 -20 -20 -20 -18 -20 -20 -20 -20 -20 -18
2 3 -20 7 8 -20 22 33 34 36 34 19 -8 2 -3 -17 -20 -13 -20 -20 13 12 7 20 20 5 -18 -10 -20 -20 -20 -20 -20 -20 -0 2 7 -15
-16 5 7 -18 -20 -20 2 30 35 34 40 34 27 -0 -20 -12 2 -16 -20 -20 14 33 31 24 -5 2 -20 16 2 -20 -20 -18 -20 -16 -20 -11 2 -13
-18 -12 -20 -20 -20 -20 -20 24 19 22 38 39 40 35 26 21 16 6 13 34 37 30 21 17 25 20 8 2 -16 -20 -20 -20 -13 -20 -20 -20 -20 -15
14 8 -10 6 -20 -20 -16 6 12 7 7 31 31 41 37 36 36 34 32 29 30 26 -3 13 -17 17 12 16 16 -20 -12 -13 -20 -8 -18 -20 -20 -20
-4 -13 -16 -16 -17 -16 -19 -20 11 11 -20 5 8 30 19 9 6 23 18 -1 -5 -20 -13 -2 -7 -8 -20 -20 -20 -20 18 -7 -10 -13 -20 -20 -20 -20
-8 -20 -19 -6 9 7 20 1 -11 -20 -20 -14 -17 -12 -5 -2 -5 -16 -9 -20 -20 -16 -20 -13 -20 -20 -20 -19 -7 -7 -4 3 2 -18 4 0 -20 -20
-20 -19 1 -5 -20 -20 -19 -15 -13 -20 2 -17 -20 -20 -20 -20 -19 -9 -20 -20 -20 -20 -20 -20 -20 -20 -20 -17 -10 10 -2 -9 10 13 9 -11 -11 -20
-5 1 4 4 5 1 -0 -11 -15 -20 -17 -20 -20 -20 5 -15 -20 -20 -20 -20 -15 -20 -20 -20 -20 -20 -20 -17 15 16 -19 3 -20 -20 5 11 3 7
-2 1 5 2 2 2 3 3 -1 0 -0 -10 -20 -20 -19 -20 -15 -17 -20 -11 -20 -20 -20 -20 -20 -20 -20 -20 3 -2 -20 -20 -17 -19 -13 -5 -20 -20
-18 1 -2 -4 -20 -0 0 7 -0 0 1 -2 -1 -3 -5 -2 -20 -0 -19 16 -10 -20 -20 -20 -11 -20 -16 -20 -20 -4 -18 -20 -3 -12 3 0 -19 -20
4 -13 4 2 1 3 -1 -0 -0 -1 1 2 3 2 10 0 0 -1 -11 18 20 9 -11 -2 1 -2 -8 -20 5 -15 -20 -11 -20 -20 -20 -5 -6 -7